Regional Weather Roundup
Issued by NWS

Home | Current Version | Previous Version | Graphics & Text | Print | Product List | Glossary On
Versions: 1 2 3 4 5 6 7 8 9 10 11 12 13 14 15 16 17 18 19 20 21 22 23 24 25 26 27 28 29 30 31 32 33 34 35 36 37 38 39 40 41 42 43 44 45 46 47 48 49 50
000
ASUS43 KLSX 300359
RWRMO

WEATHER SUMMARY FOR MISSOURI
NATIONAL WEATHER SERVICE SPRINGFIELD MO
1100 PM CDT MON JUN 29 2015

NOTE: "FAIR" INDICATES FEW OR NO CLOUDS BELOW 12,000 FEET WITH NO
       SIGNIFICANT WEATHER AND/OR OBSTRUCTIONS TO VISIBILITY.
       CURRENT SKY AND/OR WEATHER CONDITIONS ARE NOT AVAILABLE FOR
       CHILLICOTHE AND FARMINGTON.

MOZ001>031-035>038-043-044-053-054-300500-
...NORTHERN AND WESTERN MISSOURI...

CITY           SKY/WX    TMP DP  RH WIND       PRES   REMARKS
KANSAS CTY INT MOCLDY    77  63  61 W3        29.93R
KANSAS C DTWN  CLEAR     77  68  73 CALM      29.91R
LEE`S SUMMIT   CLEAR     73  63  70 SW3       29.93R
ST JOSEPH      CLEAR     73  68  84 CALM      29.92R
CHILLICOTHE      N/A     70  68  93 CALM      29.92R
KIRKSVILLE     CLEAR     67  64  90 W3        29.90R

$$
MOZ066>068-077>081-088>096-101>105-300500-
...SOUTHWEST MISSOURI...

CITY           SKY/WX    TMP DP  RH WIND       PRES   REMARKS
SPRINGFIELD    CLEAR     71  65  81 SW6       29.96R
JOPLIN         CLEAR     71  66  84 S3        29.97R

$$
MOZ032>034-039>042-045>050-055>058-069>072-300500-
...CENTRAL MISSOURI...

CITY           SKY/WX    TMP DP  RH WIND       PRES   REMARKS
COLUMBIA       CLEAR     74  67  78 W6        29.90R
JEFFERSON CITY PTCLDY    74  69  85 CALM      29.88S
ROLLA          CLEAR     70  66  87 SW6       29.91R
SEDALIA        CLEAR     75  65  70 W5        29.92S
OSAGE BEACH    CLEAR     70  66  88 CALM      29.92S

$$
MOZ051-052-059>065-300500-
...EAST CENTRAL MISSOURI...

CITY           SKY/WX    TMP DP  RH WIND       PRES   REMARKS
ST LOUIS INTL  MOCLDY    76  68  76 SW3       29.88R
SPIRIT OF STL  CLEAR     71  70  96 CALM      29.86S
ST CHARLES     PTCLDY    73  71  93 CALM      29.86S

$$
MOZ072>076-082>087-097>100-106>115-300500-
...SOUTH CENTRAL AND SOUTHEAST MISSOURI...

CITY           SKY/WX    TMP DP  RH WIND       PRES   REMARKS
CAPE GIRARDEAU CLEAR     71  69  93 S5        29.88R
FARMINGTON     CLEAR     70  66  88 CALM      29.94S
POPLAR BLUFF   CLEAR     75  70  84 CALM      29.89R
WEST PLAINS    CLEAR     70  64  81 CALM      29.97R

$$



USA.gov is the U.S. government's official web portal to all federal, state and local government web resources and services.